Weather History for Beaufort, NC

Change the Weather History Date:

Thursday, August 28, 2014

  Actual Average Record
Temperature  
Mean Temperature 78 °F -  
Max Temperature 86 °F 86 °F 94 °F (1978)
Min Temperature 71 °F 70 °F 61 °F (1984)
Cooling Degree Days 14    
Growing Degree Days 28 (Base 50)    
Moisture  
Dew Point 68 °F    
Average Humidity 70    
Maximum Humidity 87    
Minimum Humidity 53    
Precipitation  
Precipitation 0.00 in - - ()
Sea Level Pressure  
Sea Level Pressure 29.98 in    
Wind  
Wind Speed 8 mph (WSW)    
Max Wind Speed 13 mph    
Max Gust Speed -    
Visibility 10 miles    
Events      
Averages and records for this station are not official NWS values.
T = Trace of Precipitation, MM = Missing Value Source: NWS Daily Summary

Daily Weather History Graph

Daily Weather History Graph

Search for Another Location

Airport:

Trip Planner

Search our weather history database for the weather conditions in past years. The results will help you decide how hot, cold, wet, or windy it might be!

Date:

Astronomy

Aug. 28, 2014 Rise Set
Actual Time 6:36 AM EDT 7:38 PM EDT
Civil Twilight 6:10 AM EDT 8:04 PM EDT
Nautical Twilight 5:39 AM EDT 8:35 PM EDT
Astronomical Twilight 5:08 AM EDT 9:06 PM EDT
Moon 9:18 AM EDT (8/28) 9:10 PM EDT (8/28)
Length of Visible Light 13h 53m
Length of Day
13h 01m
Waxing Crescent, 8% of the Moon is Illuminated
Aug 28
Waxing Crescent
Sep 2
First Quarter
Sep 8
Full
Sep 15
Last Quarter
Sep 24
New

Hourly Weather History & Observations

Time (EDT) Temp. Heat Index Dew Point Humidity Pressure Visibility Wind Dir Wind Speed Gust Speed Precip Events Conditions
12:58 AM 73.9 °F - 69.1 °F 85% 29.96 in 10.0 mi NNW 6.9 mph - N/A   Clear
1:58 AM 72.0 °F - 68.0 °F 87% 29.94 in 10.0 mi WNW 4.6 mph - N/A   Clear
2:58 AM 72.0 °F - 68.0 °F 87% 29.94 in 10.0 mi NW 8.1 mph - N/A   Clear
3:58 AM 71.1 °F - 64.9 °F 81% 29.94 in 10.0 mi West 3.5 mph - N/A   Clear
4:58 AM 71.1 °F - 64.0 °F 78% 29.95 in 10.0 mi WNW 3.5 mph - N/A   Clear
6:58 AM 71.1 °F - 62.1 °F 73% 29.99 in 10.0 mi West 5.8 mph - N/A   Clear
7:58 AM 73.0 °F - 63.0 °F 71% 30.00 in 10.0 mi WNW 6.9 mph - N/A   Clear
8:58 AM 77.0 °F - 64.0 °F 64% 30.00 in 10.0 mi West 6.9 mph - N/A   Clear
9:58 AM 82.0 °F 83.4 °F 64.0 °F 54% 29.99 in 10.0 mi West 9.2 mph - N/A   Clear
10:58 AM 84.0 °F 85.8 °F 64.9 °F 53% 30.00 in 10.0 mi WNW 6.9 mph - N/A   Clear
11:58 AM 84.9 °F 87.6 °F 66.9 °F 55% 29.99 in 10.0 mi SW 10.4 mph - N/A   Clear
1:58 PM 86.0 °F 90.1 °F 69.1 °F 57% 29.98 in 10.0 mi SW 11.5 mph - N/A   Clear
2:58 PM 84.9 °F 89.4 °F 70.0 °F 61% 29.96 in 10.0 mi SSW 12.7 mph - N/A   Clear
3:58 PM 84.9 °F 88.8 °F 69.1 °F 59% 29.96 in 10.0 mi SSW 12.7 mph - N/A   Clear
4:58 PM 84.9 °F 89.4 °F 70.0 °F 61% 29.96 in 10.0 mi SW 12.7 mph - N/A   Clear
5:58 PM 84.0 °F 89.0 °F 71.1 °F 65% 29.97 in 10.0 mi SW 11.5 mph - N/A   Clear
6:58 PM 82.9 °F 87.5 °F 71.1 °F 67% 29.98 in 10.0 mi SW 8.1 mph - N/A   Clear
7:58 PM 81.0 °F 85.2 °F 72.0 °F 74% 29.99 in 10.0 mi SW 6.9 mph - N/A   Clear
8:58 PM 81.0 °F 85.8 °F 73.0 °F 77% 30.00 in 10.0 mi SW 8.1 mph - N/A   Clear
9:58 PM 80.1 °F 84.2 °F 73.0 °F 79% 30.01 in 10.0 mi SW 8.1 mph - N/A   Clear
10:58 PM 80.1 °F 84.2 °F 73.0 °F 79% 30.02 in 10.0 mi SW 9.2 mph - N/A   Clear
11:58 PM 80.1 °F 83.8 °F 72.0 °F 76% 30.03 in 10.0 mi WSW 8.1 mph - N/A   Partly Cloudy